M I D A S
Marine Information and Data Acquisition System
Tripno 1448 of the Zeeleeuw from 2008-03-31 08:09:42 to 2008-03-31 13:50:21
Back to CruiseResearch ActivitiesStationsMapUnderway DataData graphs

EquipmentUnitsComments
TimeDGPSUTC
LatitudeDGPSDM.mWGS84
LongitudeDGPSDM.mWGS84
SpeedMeteo Stationm/sRelative wind speed
DirectionMeteo StationdegRelative wind direction
TemperatureMeteo Stationdeg CelciusAir temperature
PressureMeteo StationPaAtmospheric pressure
HumidityMeteo Station%Relative humidity
Missing or incorrect values are displayed as -999
Metereological data collected by the RV Zeeleeuw from 2008-03-31 08:05:06 to 2008-03-31 14:01:52
                                                                                    Next 1000 lines
Time Latitude Longitude Speed Direction Temperature Pressure Humidity
2008-03-31 08:05:16 51°13.664 2°55.953 -999 -999 -999 -999 -999
2008-03-31 08:05:21 51°13.664 2°55.954 -999 -999 -999 -999 -999
2008-03-31 08:05:26 51°13.664 2°55.954 -999 -999 -999 -999 -999
2008-03-31 08:05:31 51°13.664 2°55.953 -999 -999 -999 -999 -999
2008-03-31 08:05:36 51°13.664 2°55.953 -999 -999 -999 -999 -999
2008-03-31 08:05:41 51°13.664 2°55.952 -999 -999 -999 -999 -999
2008-03-31 08:05:46 51°13.665 2°55.95 -999 -999 -999 -999 -999
2008-03-31 08:05:51 51°13.667 2°55.947 -999 -999 -999 -999 -999
2008-03-31 08:05:56 51°13.668 2°55.943 -999 -999 -999 -999 -999
2008-03-31 08:06:01 51°13.67 2°55.939 -999 -999 -999 -999 -999
2008-03-31 08:06:06 51°13.672 2°55.934 -999 -999 -999 -999 -999
2008-03-31 08:06:11 51°13.674 2°55.928 -999 -999 -999 -999 -999
2008-03-31 08:06:16 51°13.676 2°55.921 -999 -999 -999 -999 -999
2008-03-31 08:06:21 51°13.678 2°55.913 -999 -999 -999 -999 -999
2008-03-31 08:06:26 51°13.68 2°55.905 -999 -999 -999 -999 -999
2008-03-31 08:06:31 51°13.683 2°55.896 -999 -999 -999 -999 -999
2008-03-31 08:06:36 51°13.685 2°55.887 -999 -999 -999 -999 -999
2008-03-31 08:06:41 51°13.687 2°55.878 -999 -999 -999 -999 -999
2008-03-31 08:06:46 51°13.689 2°55.868 -999 -999 -999 -999 -999
2008-03-31 08:06:51 51°13.691 2°55.859 -999 -999 -999 -999 -999
2008-03-31 08:06:56 51°13.693 2°55.85 -999 -999 -999 -999 -999
2008-03-31 08:07:01 51°13.695 2°55.842 -999 -999 -999 -999 -999
2008-03-31 08:07:06 51°13.696 2°55.833 -999 -999 -999 -999 -999
2008-03-31 08:07:11 51°13.698 2°55.825 -999 -999 -999 -999 -999
2008-03-31 08:07:16 51°13.699 2°55.817 -999 -999 -999 -999 -999
2008-03-31 08:07:21 51°13.7 2°55.809 -999 -999 -999 -999 -999
2008-03-31 08:07:26 51°13.701 2°55.802 -999 -999 -999 -999 -999
2008-03-31 08:07:31 51°13.702 2°55.795 -999 -999 -999 -999 -999
2008-03-31 08:07:36 51°13.703 2°55.788 -999 -999 -999 -999 -999
2008-03-31 08:07:41 51°13.703 2°55.782 -999 -999 -999 -999 -999
2008-03-31 08:07:46 51°13.704 2°55.776 -999 -999 -999 -999 -999
2008-03-31 08:07:51 51°13.705 2°55.77 -999 -999 -999 -999 -999
2008-03-31 08:07:56 51°13.705 2°55.764 -999 -999 -999 -999 -999
2008-03-31 08:08:01 51°13.706 2°55.758 -999 -999 -999 -999 -999
2008-03-31 08:08:06 51°13.706 2°55.753 -999 -999 -999 -999 -999
2008-03-31 08:08:11 51°13.707 2°55.748 -999 -999 -999 -999 -999
2008-03-31 08:08:16 51°13.707 2°55.744 -999 -999 -999 -999 -999
2008-03-31 08:08:21 51°13.707 2°55.739 -999 -999 -999 -999 -999
2008-03-31 08:08:26 51°13.708 2°55.735 -999 -999 -999 -999 -999
2008-03-31 08:08:31 51°13.708 2°55.731 -999 -999 -999 -999 -999
2008-03-31 08:08:36 51°13.708 2°55.728 -999 -999 -999 -999 -999
2008-03-31 08:08:41 51°13.709 2°55.725 -999 -999 -999 -999 -999
2008-03-31 08:08:46 51°13.709 2°55.723 -999 -999 -999 -999 -999
2008-03-31 08:08:51 51°13.71 2°55.722 -999 -999 -999 -999 -999
2008-03-31 08:08:56 51°13.711 2°55.721 -999 -999 -999 -999 -999
2008-03-31 08:09:01 51°13.712 2°55.721 -999 -999 -999 -999 -999
2008-03-31 08:09:06 51°13.713 2°55.722 -999 -999 -999 -999 -999
2008-03-31 08:09:11 51°13.714 2°55.722 -999 -999 -999 -999 -999
2008-03-31 08:09:16 51°13.715 2°55.723 -999 -999 -999 -999 -999
2008-03-31 08:09:21 51°13.717 2°55.724 -999 -999 -999 -999 -999
2008-03-31 08:09:26 51°13.719 2°55.726 -999 -999 -999 -999 -999
2008-03-31 08:09:31 51°13.721 2°55.727 -999 -999 -999 -999 -999
2008-03-31 08:09:36 51°13.723 2°55.728 -999 -999 -999 -999 -999
2008-03-31 08:09:41 51°13.725 2°55.729 -999 -999 -999 -999 -999
2008-03-31 08:09:46 51°13.727 2°55.73 -999 -999 -999 -999 -999
2008-03-31 08:09:51 51°13.728 2°55.73 -999 -999 -999 -999 -999
2008-03-31 08:09:56 51°13.729 2°55.73 -999 -999 -999 -999 -999
2008-03-31 08:10:01 51°13.729 2°55.729 -999 -999 -999 -999 -999
2008-03-31 08:10:06 51°13.728 2°55.729 -999 -999 -999 -999 -999
2008-03-31 08:10:11 51°13.727 2°55.728 -999 -999 -999 -999 -999
2008-03-31 08:10:16 51°13.725 2°55.727 -999 -999 -999 -999 -999
2008-03-31 08:10:21 51°13.723 2°55.727 -999 -999 -999 -999 -999
2008-03-31 08:10:24 51°13.722 2°55.726 -999 -999 -999 -999 -999
2008-03-31 08:10:24 51°13.722 2°55.726 -999 -999 -999 -999 -999
2008-03-31 08:10:24 51°13.722 2°55.726 -999 -999 -999 -999 -999
2008-03-31 08:10:24 51°13.722 2°55.726 -999 -999 -999 -999 -999
2008-03-31 08:10:46 51°13.715 2°55.722 -999 -999 -999 -999 -999
2008-03-31 08:10:51 51°13.715 2°55.722 -999 -999 -999 -999 -999
2008-03-31 08:10:56 51°13.715 2°55.722 -999 -999 -999 -999 -999
2008-03-31 08:11:01 51°13.716 2°55.721 -999 -999 -999 -999 -999
2008-03-31 08:11:06 51°13.718 2°55.72 -999 -999 -999 -999 -999
2008-03-31 08:11:11 51°13.72 2°55.719 -999 -999 -999 -999 -999
2008-03-31 08:11:16 51°13.722 2°55.718 -999 14 -999 -999 -999
2008-03-31 08:11:21 51°13.724 2°55.717 1.7 79 -999 -999 -999
2008-03-31 08:11:26 51°13.727 2°55.716 1.5 35 -999 -999 -999
2008-03-31 08:11:31 51°13.73 2°55.714 2.2 74 -999 -999 -999
2008-03-31 08:11:36 51°13.732 2°55.712 1.7 35 -999 -999 -999
2008-03-31 08:11:41 51°13.736 2°55.71 0.5 74 8.1 -999 76
2008-03-31 08:11:46 51°13.739 2°55.707 1.5 32 8.1 -999 76
2008-03-31 08:11:51 51°13.743 2°55.704 1.4 82 8.1 -999 90
2008-03-31 08:11:56 51°13.747 2°55.701 1.2 31 8.1 -999 90
2008-03-31 08:12:01 51°13.751 2°55.698 0.8 73 8.2 101260 90
2008-03-31 08:12:06 51°13.755 2°55.694 1.4 31 8.2 101260 90
2008-03-31 08:12:10 51°13.759 2°55.691 0.9 81 8.2 101250 90
2008-03-31 08:12:15 51°13.764 2°55.687 0.9 36 8.2 101250 90
2008-03-31 08:12:20 51°13.77 2°55.682 0.7 74 8.2 101260 91
2008-03-31 08:12:26 51°13.777 2°55.677 0.5 32 8.2 101260 91
2008-03-31 08:12:31 51°13.783 2°55.672 0.3 82 8.2 101260 91
2008-03-31 08:12:36 51°13.789 2°55.668 0.1 37 8.2 101260 91
2008-03-31 08:12:41 51°13.795 2°55.663 0.1 82 8.3 101260 91
2008-03-31 08:12:46 51°13.801 2°55.658 0.4 37 8.3 101260 91
2008-03-31 08:12:51 51°13.808 2°55.653 0.4 82 8.3 101250 91
2008-03-31 08:12:56 51°13.815 2°55.648 0.4 37 8.3 101250 91
2008-03-31 08:13:01 51°13.821 2°55.643 0.5 81 8.3 101260 91
2008-03-31 08:13:06 51°13.828 2°55.638 0.2 37 8.3 101260 91
2008-03-31 08:13:11 51°13.835 2°55.632 0.1 78 8.3 101260 91
2008-03-31 08:13:16 51°13.842 2°55.627 0.1 35 8.3 101260 91
2008-03-31 08:13:21 51°13.849 2°55.622 -999 78 8.3 101260 91
2008-03-31 08:13:26 51°13.856 2°55.617 -999 36 8.3 101260 91
2008-03-31 08:13:31 51°13.862 2°55.613 0.2 81 8.4 101260 91
2008-03-31 08:13:36 51°13.869 2°55.608 0.4 31 8.4 101260 91
2008-03-31 08:13:41 51°13.875 2°55.603 0.3 81 8.4 101260 91
2008-03-31 08:13:46 51°13.881 2°55.599 0.4 32 8.4 101260 91
2008-03-31 08:13:51 51°13.888 2°55.594 0.3 82 8.4 101260 91
2008-03-31 08:13:56 51°13.894 2°55.59 0.5 21 8.4 101260 91
2008-03-31 08:14:01 51°13.9 2°55.585 0.6 30 8.5 101260 91
2008-03-31 08:14:06 51°13.906 2°55.581 1.3 39 8.5 101260 91
2008-03-31 08:14:11 51°13.913 2°55.576 1.1 75 8.5 101260 91
2008-03-31 08:14:15 51°13.917 2°55.573 1 38 8.5 101260 91
2008-03-31 08:14:21 51°13.924 2°55.569 1.9 78 8.5 101260 91
2008-03-31 08:14:26 51°13.93 2°55.565 2.2 30 8.5 101260 91
2008-03-31 08:14:31 51°13.936 2°55.56 1.8 79 8.6 101260 91
2008-03-31 08:14:36 51°13.942 2°55.556 1.5 36 8.6 101260 91
2008-03-31 08:14:41 51°13.947 2°55.552 0.8 82 8.6 101260 91
2008-03-31 08:14:46 51°13.953 2°55.548 0.7 36 8.6 101260 91
2008-03-31 08:14:51 51°13.959 2°55.544 1 76 8.6 101260 91
2008-03-31 08:14:56 51°13.965 2°55.539 1.3 34 8.6 101260 91
2008-03-31 08:15:01 51°13.97 2°55.535 0.7 79 8.6 101260 91
2008-03-31 08:15:06 51°13.976 2°55.531 0.4 30 8.6 101260 91
2008-03-31 08:15:11 51°13.982 2°55.527 1.8 75 8.6 101260 91
2008-03-31 08:15:16 51°13.987 2°55.522 1.6 30 8.6 101260 91
2008-03-31 08:15:21 51°13.993 2°55.518 1.4 74 8.7 101260 91
2008-03-31 08:15:26 51°13.999 2°55.514 1.2 38 8.7 101260 91
2008-03-31 08:15:31 51°14.004 2°55.509 1.6 74 8.7 101260 91
2008-03-31 08:15:36 51°14.01 2°55.505 2.3 36 8.7 101260 91
2008-03-31 08:15:41 51°14.016 2°55.501 2.1 76 8.7 101260 91
2008-03-31 08:15:46 51°14.021 2°55.497 2 35 8.7 101260 91
2008-03-31 08:15:51 51°14.027 2°55.492 1.3 80 8.7 101260 90
2008-03-31 08:15:56 51°14.033 2°55.488 1.6 36 8.7 101260 90
2008-03-31 08:16:01 51°14.038 2°55.484 1.2 78 8.7 101260 90
2008-03-31 08:16:06 51°14.044 2°55.48 0.8 37 8.7 101260 90
2008-03-31 08:16:11 51°14.049 2°55.476 0.7 79 8.7 101260 90
2008-03-31 08:16:16 51°14.055 2°55.472 1 32 8.7 101260 90
2008-03-31 08:16:21 51°14.061 2°55.467 1.2 75 8.7 101260 90
2008-03-31 08:16:26 51°14.066 2°55.463 1 31 8.7 101260 90
2008-03-31 08:16:31 51°14.072 2°55.458 1.4 78 8.7 101260 90
2008-03-31 08:16:36 51°14.078 2°55.454 1.6 38 8.7 101260 90
2008-03-31 08:16:41 51°14.083 2°55.449 1.2 78 8.7 101260 90
2008-03-31 08:16:46 51°14.089 2°55.445 1.5 38 8.7 101260 90
2008-03-31 08:16:51 51°14.095 2°55.44 2.2 79 8.7 101260 90
2008-03-31 08:16:56 51°14.1 2°55.435 1.4 36 8.7 101260 90
2008-03-31 08:17:01 51°14.106 2°55.431 1.5 78 8.7 101260 89
2008-03-31 08:17:06 51°14.111 2°55.427 1.7 37 8.7 101260 89
2008-03-31 08:17:11 51°14.117 2°55.422 1.4 74 8.7 101260 89
2008-03-31 08:17:16 51°14.123 2°55.417 1.4 31 8.7 101260 89
2008-03-31 08:17:21 51°14.129 2°55.412 1.2 78 8.7 101270 89
2008-03-31 08:17:26 51°14.135 2°55.407 1.1 31 8.7 101270 89
2008-03-31 08:17:30 51°14.14 2°55.403 0.6 77 8.7 101260 89
2008-03-31 08:17:35 51°14.147 2°55.397 0.7 38 8.7 101260 89
2008-03-31 08:17:40 51°14.153 2°55.39 0.4 74 8.8 101270 89
2008-03-31 08:17:46 51°14.161 2°55.383 0.4 34 8.8 101270 89
2008-03-31 08:17:51 51°14.168 2°55.376 0.7 285 8.8 101260 89
2008-03-31 08:17:56 51°14.175 2°55.369 0.7 270 8.8 101260 89
2008-03-31 08:18:01 51°14.181 2°55.362 0.9 279 8.8 101260 89
2008-03-31 08:18:06 51°14.188 2°55.355 1 263 8.8 101260 89
2008-03-31 08:18:11 51°14.194 2°55.347 1.6 287 8.8 101270 89
2008-03-31 08:18:16 51°14.201 2°55.339 1.9 259 8.8 101270 89
2008-03-31 08:18:21 51°14.207 2°55.331 1.3 282 8.8 101270 89
2008-03-31 08:18:26 51°14.213 2°55.323 1.2 266 8.8 101270 89
2008-03-31 08:18:31 51°14.219 2°55.315 1 279 8.9 101260 89
2008-03-31 08:18:36 51°14.225 2°55.307 1.1 266 8.9 101260 89
2008-03-31 08:18:41 51°14.231 2°55.298 1.2 281 8.9 101270 89
2008-03-31 08:18:46 51°14.237 2°55.29 1.3 264 8.9 101270 89
2008-03-31 08:18:50 51°14.242 2°55.283 2.6 77 8.9 101260 89
2008-03-31 08:18:55 51°14.248 2°55.274 2.3 38 8.9 101260 89
2008-03-31 08:19:00 51°14.253 2°55.265 2.7 76 8.9 101270 89
2008-03-31 08:19:05 51°14.259 2°55.256 2.1 270 8.9 101270 89
2008-03-31 08:19:10 51°14.264 2°55.247 1.7 79 9 101270 89
2008-03-31 08:19:14 51°14.269 2°55.239 1.8 269 9 101270 89
2008-03-31 08:19:19 51°14.274 2°55.229 2.3 280 9 101270 89
2008-03-31 08:19:24 51°14.279 2°55.219 1.7 264 9 101270 89
2008-03-31 08:19:29 51°14.283 2°55.208 2.4 286 9 101270 89
2008-03-31 08:19:34 51°14.289 2°55.197 2.3 264 9 101270 89
2008-03-31 08:19:38 51°14.293 2°55.188 2.4 284 9 101270 89
2008-03-31 08:19:44 51°14.3 2°55.174 2 261 9 101270 89
2008-03-31 08:19:48 51°14.305 2°55.164 1.4 282 9 101270 88
2008-03-31 08:19:53 51°14.312 2°55.152 2.2 256 9 101270 88
2008-03-31 08:19:58 51°14.318 2°55.14 2 279 9 101270 88
2008-03-31 08:20:03 51°14.326 2°55.127 1.4 261 9 101270 88
2008-03-31 08:20:08 51°14.334 2°55.114 1.5 282 9 101270 88
2008-03-31 08:20:13 51°14.342 2°55.101 1.6 248 9 101270 88
2008-03-31 08:20:18 51°14.351 2°55.088 1.2 278 9 101270 88
2008-03-31 08:20:23 51°14.361 2°55.075 1.6 39 9 101270 88
2008-03-31 08:20:27 51°14.369 2°55.065 1.7 278 9 101270 88
2008-03-31 08:20:33 51°14.382 2°55.05 3 323 9 101270 88
2008-03-31 08:20:38 51°14.394 2°55.038 3.4 326 9.1 101270 88
2008-03-31 08:20:43 51°14.405 2°55.027 3.1 327 9.1 101270 88
2008-03-31 08:20:47 51°14.415 2°55.018 2.4 282 9.1 101260 88
2008-03-31 08:20:53 51°14.431 2°55.007 3.6 342 9.1 101260 88
2008-03-31 08:20:58 51°14.445 2°54.999 2.6 280 9.1 101270 88
2008-03-31 08:21:03 51°14.459 2°54.992 2.3 337 9.1 101270 88
2008-03-31 08:21:07 51°14.471 2°54.986 2.9 286 9 101270 88
2008-03-31 08:21:13 51°14.489 2°54.981 3.4 340 9 101270 88
2008-03-31 08:21:18 51°14.505 2°54.979 2.8 281 9 101270 87
2008-03-31 08:21:23 51°14.52 2°54.979 3.2 342 9 101270 87
2008-03-31 08:21:27 51°14.533 2°54.98 2.9 347 9 101270 86
2008-03-31 08:21:33 51°14.553 2°54.981 4.1 347 9 101270 86
2008-03-31 08:21:38 51°14.57 2°54.984 4.4 281 9 101270 86
2008-03-31 08:21:43 51°14.588 2°54.987 4.3 344 9 101270 86
2008-03-31 08:21:47 51°14.602 2°54.988 4.3 280 8.9 101270 86
2008-03-31 08:21:53 51°14.623 2°54.992 4.1 345 8.9 101270 86
2008-03-31 08:21:58 51°14.641 2°54.994 3.3 284 8.9 101270 85
2008-03-31 08:22:03 51°14.659 2°54.998 3.5 339 8.9 101270 85
2008-03-31 08:22:07 51°14.673 2°55.001 3 285 8.8 101270 85
2008-03-31 08:22:13 51°14.694 2°55.005 3.4 348 8.8 101270 85
2008-03-31 08:22:18 51°14.712 2°55.01 3.6 280 8.8 101270 85
2008-03-31 08:22:23 51°14.73 2°55.014 3.1 343 8.8 101270 85
2008-03-31 08:22:28 51°14.748 2°55.016 2.3 284 8.7 101270 85
2008-03-31 08:22:33 51°14.766 2°55.017 2.2 340 8.7 101270 85
2008-03-31 08:22:38 51°14.784 2°55.016 1.9 282 8.7 101270 85
2008-03-31 08:22:42 51°14.798 2°55.013 2.2 237 8.7 101270 85
2008-03-31 08:22:48 51°14.819 2°55.006 2.2 284 8.7 101270 85
2008-03-31 08:22:53 51°14.836 2°54.998 2 36 8.7 101270 85
2008-03-31 08:22:58 51°14.852 2°54.989 2 279 8.7 101270 85
2008-03-31 08:23:03 51°14.869 2°54.978 2.4 322 8.7 101270 85
2008-03-31 08:23:07 51°14.881 2°54.968 3.3 283 8.7 101270 86
2008-03-31 08:23:13 51°14.899 2°54.951 4 319 8.7 101270 86
2008-03-31 08:23:18 51°14.913 2°54.935 3.9 286 8.7 101270 86
2008-03-31 08:23:22 51°14.923 2°54.921 4.2 33 8.7 101270 86
2008-03-31 08:23:27 51°14.936 2°54.903 4.9 278 8.7 101270 86
2008-03-31 08:23:33 51°14.952 2°54.882 4.4 38 8.7 101270 86
2008-03-31 08:23:38 51°14.966 2°54.866 3.9 284 8.6 101270 86
2008-03-31 08:23:43 51°14.98 2°54.849 3.7 315 8.6 101270 86
2008-03-31 08:23:47 51°14.991 2°54.835 3.5 282 8.6 101270 86
2008-03-31 08:23:53 51°15.007 2°54.814 4.9 317 8.6 101270 86
2008-03-31 08:23:58 51°15.02 2°54.796 4.7 279 8.6 101270 86
2008-03-31 08:24:03 51°15.032 2°54.776 6.4 36 8.6 101270 86
2008-03-31 08:24:07 51°15.041 2°54.759 6.4 282 8.6 101270 86
2008-03-31 08:24:13 51°15.052 2°54.733 6.3 315 8.6 101270 86
2008-03-31 08:24:18 51°15.061 2°54.71 6.6 280 8.6 101270 86
2008-03-31 08:24:23 51°15.07 2°54.687 6.3 30 8.6 101270 86
2008-03-31 08:24:27 51°15.077 2°54.668 4.8 285 8.6 101270 86
2008-03-31 08:24:33 51°15.087 2°54.64 6.5 38 8.6 101270 86
2008-03-31 08:24:38 51°15.095 2°54.616 6 280 8.6 101270 86
2008-03-31 08:24:43 51°15.103 2°54.592 6.3 36 8.6 101270 86
2008-03-31 08:24:47 51°15.109 2°54.573 5.2 283 8.6 101270 86
2008-03-31 08:24:53 51°15.118 2°54.543 6.5 37 8.6 101270 86
2008-03-31 08:24:58 51°15.125 2°54.519 6.3 280 8.6 101270 86
2008-03-31 08:25:02 51°15.131 2°54.499 5.9 37 8.6 101270 86
2008-03-31 08:25:08 51°15.139 2°54.469 7 283 8.6 101270 86
2008-03-31 08:25:13 51°15.146 2°54.444 5.8 30 8.6 101270 86
2008-03-31 08:25:18 51°15.154 2°54.419 6.2 281 8.6 101270 86
2008-03-31 08:25:23 51°15.161 2°54.394 5.7 36 8.6 101270 86
2008-03-31 08:25:27 51°15.167 2°54.375 6.1 279 8.6 101260 86
2008-03-31 08:25:33 51°15.176 2°54.345 5.6 36 8.6 101260 86
2008-03-31 08:25:38 51°15.183 2°54.319 8.2 281 8.6 101270 86
2008-03-31 08:25:43 51°15.189 2°54.294 8.3 236 8.6 101270 86
2008-03-31 08:25:47 51°15.195 2°54.274 6.5 284 8.6 101270 86
2008-03-31 08:25:53 51°15.202 2°54.243 8.3 236 8.6 101270 86
2008-03-31 08:25:58 51°15.208 2°54.217 7.5 282 8.6 101270 86
2008-03-31 08:26:03 51°15.213 2°54.191 8.1 237 8.6 101270 86
2008-03-31 08:26:07 51°15.218 2°54.17 7.4 279 8.6 101260 86
2008-03-31 08:26:13 51°15.225 2°54.139 7.8 237 8.6 101260 86
2008-03-31 08:26:18 51°15.23 2°54.112 7.6 279 8.5 101270 86
2008-03-31 08:26:23 51°15.236 2°54.086 6.3 236 8.5 101270 86
2008-03-31 08:26:27 51°15.24 2°54.065 7.9 285 8.5 101260 86
2008-03-31 08:26:33 51°15.247 2°54.034 7.6 237 8.5 101260 86
2008-03-31 08:26:38 51°15.252 2°54.007 8.1 23 8.5 101270 86
2008-03-31 08:26:43 51°15.258 2°53.981 7.4 37 8.5 101270 86
2008-03-31 08:26:47 51°15.263 2°53.96 6 279 8.5 101260 86
2008-03-31 08:26:53 51°15.27 2°53.929 6.3 38 8.5 101260 86
2008-03-31 08:26:58 51°15.276 2°53.903 8.2 281 8.5 101270 86
2008-03-31 08:27:03 51°15.282 2°53.877 6 37 8.5 101270 86
2008-03-31 08:27:08 51°15.288 2°53.851 7.5 285 8.5 101270 86
2008-03-31 08:27:13 51°15.294 2°53.825 7.4 38 8.5 101270 86
2008-03-31 08:27:18 51°15.3 2°53.799 6 283 8.5 101260 86
2008-03-31 08:27:23 51°15.306 2°53.773 7.9 36 8.5 101260 86
2008-03-31 08:27:28 51°15.312 2°53.747 6.1 281 8.5 101260 86
2008-03-31 08:27:33 51°15.317 2°53.721 6.3 37 8.5 101260 86
2008-03-31 08:27:38 51°15.322 2°53.695 6.8 281 8.5 101270 86
2008-03-31 08:27:43 51°15.325 2°53.668 8 34 8.5 101270 86
2008-03-31 08:27:48 51°15.329 2°53.641 7.9 285 8.5 101270 86
2008-03-31 08:27:53 51°15.331 2°53.614 6.5 33 8.5 101270 86
2008-03-31 08:27:58 51°15.334 2°53.588 6.4 281 8.5 101260 86
2008-03-31 08:28:02 51°15.335 2°53.566 8.5 37 8.5 101260 86
2008-03-31 08:28:07 51°15.337 2°53.539 7 284 8.5 101260 86
2008-03-31 08:28:13 51°15.34 2°53.507 9.3 36 8.5 101260 86
2008-03-31 08:28:18 51°15.341 2°53.48 7.4 279 8.5 101260 86
2008-03-31 08:28:23 51°15.343 2°53.453 9.1 35 8.5 101260 86
2008-03-31 08:28:27 51°15.344 2°53.431 9.5 280 8.5 101260 86
2008-03-31 08:28:33 51°15.347 2°53.399 9.3 33 8.5 101260 86
2008-03-31 08:28:38 51°15.348 2°53.372 7.1 284 8.4 101260 86
2008-03-31 08:28:43 51°15.351 2°53.345 7.2 36 8.4 101260 86
2008-03-31 08:28:47 51°15.352 2°53.324 7.2 281 8.5 101260 86
2008-03-31 08:28:53 51°15.354 2°53.292 7.2 34 8.5 101260 86
2008-03-31 08:28:58 51°15.356 2°53.265 8.6 281 8.5 101250 86
2008-03-31 08:29:03 51°15.358 2°53.238 8.7 36 8.5 101250 86
2008-03-31 08:29:08 51°15.36 2°53.211 8 283 8.4 101250 86
2008-03-31 08:29:13 51°15.362 2°53.184 8.4 35 8.4 101250 86
2008-03-31 08:29:18 51°15.364 2°53.157 9.2 283 8.4 101250 86
2008-03-31 08:29:23 51°15.366 2°53.13 8.7 35 8.4 101250 86
2008-03-31 08:29:27 51°15.368 2°53.108 6.5 278 8.4 101260 87
2008-03-31 08:29:33 51°15.37 2°53.076 8.2 33 8.4 101260 87
2008-03-31 08:29:38 51°15.372 2°53.049 8.1 285 8.4 101260 87
2008-03-31 08:29:42 51°15.374 2°53.027 8 34 8.4 101260 87
2008-03-31 08:29:48 51°15.377 2°52.995 8.1 280 8.4 101260 87
2008-03-31 08:29:53 51°15.378 2°52.968 6.8 233 8.4 101260 87
2008-03-31 08:29:58 51°15.381 2°52.941 8 284 8.4 101260 87
2008-03-31 08:30:03 51°15.383 2°52.914 8.2 35 8.4 101260 87
2008-03-31 08:30:07 51°15.385 2°52.892 8.3 278 8.4 101260 87
2008-03-31 08:30:13 51°15.387 2°52.86 8.3 36 8.4 101260 87
2008-03-31 08:30:18 51°15.389 2°52.833 8.5 283 8.4 101260 87
2008-03-31 08:30:23 51°15.392 2°52.806 8.8 33 8.4 101260 87
2008-03-31 08:30:27 51°15.393 2°52.784 6.7 279 8.4 101260 87
2008-03-31 08:30:33 51°15.396 2°52.752 6.7 233 8.4 101260 87
2008-03-31 08:30:38 51°15.398 2°52.725 6.7 280 8.4 101260 87
2008-03-31 08:30:43 51°15.4 2°52.698 8.9 31 8.4 101260 87
2008-03-31 08:30:47 51°15.402 2°52.676 7.1 281 8.4 101260 87
2008-03-31 08:30:53 51°15.405 2°52.643 8.8 34 8.4 101260 87
2008-03-31 08:30:58 51°15.407 2°52.616 7.1 281 8.4 101260 87
2008-03-31 08:31:03 51°15.409 2°52.589 6.9 33 8.4 101260 87
2008-03-31 08:31:07 51°15.411 2°52.568 7 280 8.3 101260 87
2008-03-31 08:31:13 51°15.414 2°52.535 9.1 233 8.3 101260 87
2008-03-31 08:31:18 51°15.417 2°52.508 7.3 284 8.4 101260 87
2008-03-31 08:31:23 51°15.419 2°52.481 8.9 235 8.4 101260 87
2008-03-31 08:31:28 51°15.421 2°52.454 7.4 280 8.4 101260 87
2008-03-31 08:31:33 51°15.424 2°52.427 9.5 236 8.4 101260 87
2008-03-31 08:31:38 51°15.426 2°52.4 7.2 285 8.3 101260 87
2008-03-31 08:31:42 51°15.428 2°52.378 9.5 235 8.3 101260 87
2008-03-31 08:31:48 51°15.428 2°52.346 8.5 281 8.3 101260 87
2008-03-31 08:31:53 51°15.43 2°52.319 8.9 32 8.3 101260 87
2008-03-31 08:31:58 51°15.43 2°52.292 7.1 283 8.3 101260 87
2008-03-31 08:32:03 51°15.431 2°52.265 7 38 8.3 101260 87
2008-03-31 08:32:07 51°15.431 2°52.243 6.9 285 8.3 101260 87
2008-03-31 08:32:13 51°15.431 2°52.21 8.4 34 8.3 101260 87
2008-03-31 08:32:18 51°15.431 2°52.183 6.9 280 8.3 101260 87
2008-03-31 08:32:23 51°15.431 2°52.156 8.5 32 8.3 101260 87
2008-03-31 08:32:27 51°15.431 2°52.135 6.7 279 8.3 101260 87
2008-03-31 08:32:33 51°15.431 2°52.102 6.7 34 8.3 101260 87
2008-03-31 08:32:38 51°15.431 2°52.075 6.9 284 8.3 101260 87
2008-03-31 08:32:43 51°15.431 2°52.048 8.6 31 8.3 101260 87
2008-03-31 08:32:47 51°15.432 2°52.026 8.8 279 8.3 101260 87
2008-03-31 08:32:53 51°15.432 2°51.994 6.8 38 8.3 101260 87
2008-03-31 08:32:58 51°15.433 2°51.966 8.9 284 8.3 101260 87
2008-03-31 08:33:03 51°15.433 2°51.939 8.9 38 8.3 101260 87
2008-03-31 08:33:07 51°15.434 2°51.918 9 281 8.3 101260 88
2008-03-31 08:33:13 51°15.435 2°51.885 8.6 31 8.3 101260 88
2008-03-31 08:33:18 51°15.436 2°51.858 9.2 285 8.3 101260 88
2008-03-31 08:33:23 51°15.436 2°51.831 7 36 8.3 101260 88
2008-03-31 08:33:28 51°15.436 2°51.804 7.2 281 8.3 101250 88
2008-03-31 08:33:33 51°15.437 2°51.777 8.7 37 8.3 101250 88
2008-03-31 08:33:38 51°15.438 2°51.75 8.7 284 8.3 101260 88
2008-03-31 08:33:43 51°15.439 2°51.722 8.6 32 8.3 101260 88
2008-03-31 08:33:48 51°15.44 2°51.695 6.4 285 8.3 101260 88
2008-03-31 08:33:53 51°15.442 2°51.668 8 36 8.3 101260 88
2008-03-31 08:33:58 51°15.444 2°51.641 6.5 280 8.3 101260 88
2008-03-31 08:34:03 51°15.445 2°51.614 8.4 32 8.3 101260 88
2008-03-31 08:34:07 51°15.446 2°51.592 8 281 8.2 101260 88
2008-03-31 08:34:13 51°15.448 2°51.56 8.1 36 8.2 101260 88
2008-03-31 08:34:18 51°15.45 2°51.533 6.3 279 8.2 101260 88
2008-03-31 08:34:22 51°15.451 2°51.511 8 36 8.2 101260 88
2008-03-31 08:34:27 51°15.452 2°51.484 8.1 280 8.2 101260 88
2008-03-31 08:34:33 51°15.454 2°51.451 8.1 36 8.2 101260 88
2008-03-31 08:34:38 51°15.455 2°51.424 8.3 278 8.2 101260 88
2008-03-31 08:34:43 51°15.456 2°51.397 6.8 231 8.2 101260 88
2008-03-31 08:34:47 51°15.457 2°51.375 8.7 285 8.3 101260 88
2008-03-31 08:34:53 51°15.458 2°51.343 7 34 8.3 101260 88
2008-03-31 08:34:58 51°15.459 2°51.316 8.8 284 8.3 101260 88
2008-03-31 08:35:03 51°15.46 2°51.289 6.7 33 8.3 101260 88
2008-03-31 08:35:07 51°15.461 2°51.267 8.6 282 8.2 101260 88
2008-03-31 08:35:13 51°15.462 2°51.235 6.7 31 8.2 101260 88
2008-03-31 08:35:18 51°15.463 2°51.208 9 281 8.2 101260 88
2008-03-31 08:35:23 51°15.464 2°51.181 7.1 33 8.2 101260 88
2008-03-31 08:35:28 51°15.465 2°51.153 7 280 8.2 101260 88
2008-03-31 08:35:33 51°15.467 2°51.126 6.6 37 8.2 101260 88
2008-03-31 08:35:38 51°15.468 2°51.099 8.6 282 8.2 101260 88
2008-03-31 08:35:43 51°15.47 2°51.072 8.2 33 8.2 101260 88
2008-03-31 08:35:47 51°15.471 2°51.051 6.5 284 8.2 101260 88
2008-03-31 08:35:53 51°15.474 2°51.018 8.5 232 8.2 101260 88
2008-03-31 08:35:58 51°15.477 2°50.991 6.9 281 8.2 101260 88
2008-03-31 08:36:03 51°15.48 2°50.964 7.1 36 8.2 101260 88
2008-03-31 08:36:07 51°15.482 2°50.943 7.2 280 8.2 101260 88
2008-03-31 08:36:13 51°15.485 2°50.91 6.8 36 8.2 101260 88
2008-03-31 08:36:18 51°15.487 2°50.883 7.3 285 8.2 101270 88
2008-03-31 08:36:23 51°15.489 2°50.856 7.1 31 8.2 101270 88
2008-03-31 08:36:28 51°15.492 2°50.829 7.4 280 8.2 101260 88
2008-03-31 08:36:33 51°15.494 2°50.802 8.9 36 8.2 101260 88
2008-03-31 08:36:38 51°15.496 2°50.775 6.8 282 8.2 101260 89
2008-03-31 08:36:43 51°15.498 2°50.748 8.2 34 8.2 101260 89
2008-03-31 08:36:47 51°15.499 2°50.726 8.5 281 8.2 101260 89
2008-03-31 08:36:53 51°15.502 2°50.694 8.4 37 8.2 101260 89
2008-03-31 08:36:58 51°15.504 2°50.667 8.1 282 8.2 101270 89
2008-03-31 08:37:03 51°15.506 2°50.64 8.3 37 8.2 101270 89
2008-03-31 08:37:07 51°15.508 2°50.619 8.4 280 8.2 101260 89
2008-03-31 08:37:13 51°15.51 2°50.586 8.6 234 8.2 101260 89
2008-03-31 08:37:18 51°15.512 2°50.559 8.1 282 8.2 101260 89
2008-03-31 08:37:23 51°15.514 2°50.532 6.4 37 8.2 101260 89
2008-03-31 08:37:27 51°15.516 2°50.51 6.6 280 8.2 101260 89
2008-03-31 08:37:33 51°15.518 2°50.478 8 37 8.2 101260 89
2008-03-31 08:37:38 51°15.52 2°50.451 6.3 281 8.2 101270 89
2008-03-31 08:37:43 51°15.522 2°50.424 6.2 232 8.2 101270 89
2008-03-31 08:37:47 51°15.523 2°50.402 6.4 281 8.2 101270 89
2008-03-31 08:37:53 51°15.526 2°50.37 8 36 8.2 101270 89
2008-03-31 08:37:58 51°15.528 2°50.342 8.1 284 8.2 101270 89
2008-03-31 08:38:03 51°15.53 2°50.315 7 34 8.2 101270 89
2008-03-31 08:38:08 51°15.532 2°50.288 8.1 282 8.2 101270 89
2008-03-31 08:38:13 51°15.534 2°50.261 8.1 35 8.2 101270 89
2008-03-31 08:38:18 51°15.536 2°50.234 8.2 280 8.2 101270 89
2008-03-31 08:38:23 51°15.538 2°50.206 8.2 37 8.2 101270 89
2008-03-31 08:38:28 51°15.54 2°50.179 6.6 283 8.2 101270 89
2008-03-31 08:38:33 51°15.542 2°50.152 6.6 37 8.2 101270 89
2008-03-31 08:38:38 51°15.544 2°50.125 6.7 278 8.2 101270 89
2008-03-31 08:38:43 51°15.547 2°50.097 8 32 8.2 101270 89
2008-03-31 08:38:48 51°15.549 2°50.07 6.5 286 8.2 101270 89
2008-03-31 08:38:53 51°15.552 2°50.043 6.5 37 8.2 101270 89
2008-03-31 08:38:58 51°15.555 2°50.016 6.7 281 8.2 101270 89
2008-03-31 08:39:03 51°15.557 2°49.989 6.9 32 8.2 101270 89
2008-03-31 08:39:08 51°15.56 2°49.962 7.8 279 8.2 101270 89
2008-03-31 08:39:13 51°15.562 2°49.934 8.3 35 8.2 101270 89
2008-03-31 08:39:18 51°15.565 2°49.907 8.1 281 8.2 101270 89
2008-03-31 08:39:22 51°15.567 2°49.885 6.9 232 8.2 101270 89
2008-03-31 08:39:27 51°15.569 2°49.858 6.6 284 8.2 101270 89
2008-03-31 08:39:33 51°15.571 2°49.826 6.8 31 8.2 101270 89
2008-03-31 08:39:38 51°15.573 2°49.798 6.6 280 8.2 101270 89
2008-03-31 08:39:43 51°15.575 2°49.771 8.5 34 8.2 101270 89
2008-03-31 08:39:47 51°15.576 2°49.749 6.8 279 8.2 101270 89
2008-03-31 08:39:53 51°15.579 2°49.717 8.8 233 8.2 101270 89
2008-03-31 08:39:58 51°15.58 2°49.689 7 280 8.2 101270 89
2008-03-31 08:40:03 51°15.582 2°49.662 8.5 235 8.2 101270 89
2008-03-31 08:40:07 51°15.584 2°49.641 8.6 279 8.2 101270 89
2008-03-31 08:40:13 51°15.586 2°49.608 8.4 36 8.2 101270 89
2008-03-31 08:40:18 51°15.589 2°49.581 8.5 281 8.2 101270 89
2008-03-31 08:40:23 51°15.591 2°49.554 8.7 36 8.2 101270 89
2008-03-31 08:40:28 51°15.592 2°49.526 8.6 280 8.2 101270 89
2008-03-31 08:40:33 51°15.594 2°49.499 6.9 233 8.2 101270 89
2008-03-31 08:40:38 51°15.596 2°49.472 8.8 280 8.2 101280 90
2008-03-31 08:40:43 51°15.598 2°49.445 8.5 36 8.2 101280 90
2008-03-31 08:40:47 51°15.6 2°49.423 8.4 284 8.2 101270 90
2008-03-31 08:40:53 51°15.602 2°49.391 8.5 33 8.2 101270 90
2008-03-31 08:40:58 51°15.604 2°49.364 9.5 280 8.2 101270 90
2008-03-31 08:41:02 51°15.606 2°49.342 7.5 37 8.2 101270 90
2008-03-31 08:41:08 51°15.609 2°49.31 9 284 8.2 101270 90
2008-03-31 08:41:13 51°15.61 2°49.283 7.6 33 8.2 101270 90
2008-03-31 08:41:18 51°15.613 2°49.255 9.1 282 8.2 101270 90
2008-03-31 08:41:23 51°15.615 2°49.228 9.2 32 8.2 101270 90
2008-03-31 08:41:27 51°15.616 2°49.207 7.3 285 8.1 101270 90
2008-03-31 08:41:33 51°15.619 2°49.174 8.9 36 8.1 101270 90
2008-03-31 08:41:38 51°15.621 2°49.147 8.9 284 8.2 101270 90
2008-03-31 08:41:43 51°15.623 2°49.12 9 233 8.2 101270 90
2008-03-31 08:41:47 51°15.625 2°49.099 8.7 279 8.1 101270 90
2008-03-31 08:41:53 51°15.628 2°49.067 8 236 8.1 101270 90
2008-03-31 08:41:58 51°15.633 2°49.041 7.9 281 8.1 101270 90
2008-03-31 08:42:03 51°15.638 2°49.015 6.1 235 8.1 101270 90
2008-03-31 08:42:07 51°15.643 2°48.994 7.5 282 8.2 101270 90
2008-03-31 08:42:13 51°15.651 2°48.964 5.7 235 8.2 101270 90
2008-03-31 08:42:18 51°15.658 2°48.939 7.1 282 8.1 101270 90
2008-03-31 08:42:23 51°15.666 2°48.914 4.8 32 8.1 101270 90
2008-03-31 08:42:27 51°15.674 2°48.896 6.1 280 8.1 101280 90
2008-03-31 08:42:33 51°15.685 2°48.867 6.3 237 8.1 101280 90
2008-03-31 08:42:38 51°15.695 2°48.845 6 25 8.1 101280 90
2008-03-31 08:42:43 51°15.705 2°48.821 4.6 238 8.1 101280 90
2008-03-31 08:42:47 51°15.713 2°48.803 6.1 283 8.2 101280 90
2008-03-31 08:42:53 51°15.725 2°48.776 6.3 33 8.2 101280 90
2008-03-31 08:42:58 51°15.735 2°48.753 6 280 8.1 101280 90
2008-03-31 08:43:03 51°15.745 2°48.729 6.4 237 8.1 101280 90
2008-03-31 08:43:08 51°15.754 2°48.706 5.9 281 8.2 101280 90
2008-03-31 08:43:13 51°15.764 2°48.683 5.9 235 8.2 101280 90
2008-03-31 08:43:18 51°15.774 2°48.66 6.5 279 8.2 101280 90
2008-03-31 08:43:23 51°15.784 2°48.636 5.1 34 8.2 101280 90
2008-03-31 08:43:28 51°15.794 2°48.613 5.5 280 8.2 101280 90
2008-03-31 08:43:33 51°15.804 2°48.59 6.4 235 8.2 101280 90
2008-03-31 08:43:38 51°15.813 2°48.566 5.5 282 8.2 101290 90
2008-03-31 08:43:43 51°15.823 2°48.543 5.1 35 8.2 101290 90
2008-03-31 08:43:47 51°15.831 2°48.524 6 287 8.1 101280 90
2008-03-31 08:43:53 51°15.842 2°48.496 6.2 33 8.1 101280 90
2008-03-31 08:43:58 51°15.851 2°48.472 5 280 8.2 101280 90
2008-03-31 08:44:03 51°15.86 2°48.448 6.1 38 8.2 101280 90
2008-03-31 08:44:07 51°15.867 2°48.429 6.5 286 8.2 101290 90
2008-03-31 08:44:13 51°15.876 2°48.399 6.2 39 8.2 101290 90
2008-03-31 08:44:18 51°15.884 2°48.374 6.7 280 8.2 101280 90
2008-03-31 08:44:23 51°15.891 2°48.349 5.1 38 8.2 101280 90
2008-03-31 08:44:27 51°15.898 2°48.329 5.3 286 8.2 101290 90
2008-03-31 08:44:33 51°15.906 2°48.298 5.2 32 8.2 101290 90
2008-03-31 08:44:38 51°15.913 2°48.273 6.7 284 8.2 101290 90
2008-03-31 08:44:43 51°15.919 2°48.247 7.1 37 8.2 101290 90
2008-03-31 08:44:47 51°15.924 2°48.227 7.2 284 8.2 101280 90
2008-03-31 08:44:53 51°15.931 2°48.196 7.4 35 8.2 101280 90
2008-03-31 08:44:58 51°15.935 2°48.169 5.8 282 8.2 101280 90
2008-03-31 08:45:03 51°15.94 2°48.143 6 35 8.2 101280 90
2008-03-31 08:45:08 51°15.943 2°48.116 7.7 279 8.2 101280 90
2008-03-31 08:45:13 51°15.948 2°48.09 6.2 233 8.2 101280 90
2008-03-31 08:45:18 51°15.951 2°48.063 7.6 278 8.2 101280 90
2008-03-31 08:45:23 51°15.955 2°48.036 7.7 32 8.2 101280 90
2008-03-31 08:45:28 51°15.959 2°48.009 6.4 279 8.2 101280 90
2008-03-31 08:45:33 51°15.962 2°47.982 6.2 34 8.2 101280 90
2008-03-31 08:45:38 51°15.966 2°47.955 8.1 20 8.2 101280 90
2008-03-31 08:45:43 51°15.969 2°47.929 6.5 33 8.2 101280 90
2008-03-31 08:45:48 51°15.973 2°47.902 6.3 285 8.2 101280 90
2008-03-31 08:45:53 51°15.977 2°47.875 8 36 8.2 101280 90
2008-03-31 08:45:58 51°15.981 2°47.848 7.7 281 8.2 101280 90
2008-03-31 08:46:02 51°15.984 2°47.827 7.5 38 8.2 101280 90
2008-03-31 08:46:07 51°15.988 2°47.8 6.2 286 8.2 101280 90
2008-03-31 08:46:13 51°15.993 2°47.768 6.3 30 8.2 101280 90
2008-03-31 08:46:18 51°15.997 2°47.741 7.8 281 8.2 101280 90
2008-03-31 08:46:23 51°16.002 2°47.714 8.5 37 8.2 101280 90
2008-03-31 08:46:27 51°16.004 2°47.693 7.8 283 8.1 101280 90
2008-03-31 08:46:33 51°16.008 2°47.661 8.1 30 8.1 101280 90
2008-03-31 08:46:38 51°16.011 2°47.634 8.4 286 8.1 101280 90
2008-03-31 08:46:43 51°16.014 2°47.606 6.6 36 8.1 101280 90
2008-03-31 08:46:47 51°16.016 2°47.585 6.7 280 8.2 101280 90
2008-03-31 08:46:53 51°16.02 2°47.552 8.4 231 8.2 101280 90
2008-03-31 08:46:58 51°16.022 2°47.525 6.8 284 8.1 101290 90
2008-03-31 08:47:03 51°16.025 2°47.498 7 38 8.1 101290 90
2008-03-31 08:47:07 51°16.027 2°47.476 6.6 283 8.2 101280 90
2008-03-31 08:47:13 51°16.03 2°47.444 8.5 33 8.2 101280 90
2008-03-31 08:47:18 51°16.033 2°47.417 6.9 285 8.1 101280 90
2008-03-31 08:47:23 51°16.036 2°47.39 7.8 34 8.1 101280 90
2008-03-31 08:47:27 51°16.039 2°47.368 6.6 280 8.1 101280 90
2008-03-31 08:47:33 51°16.043 2°47.335 8.2 35 8.1 101280 90
2008-03-31 08:47:38 51°16.047 2°47.308 6.5 24 8.1 101290 90
2008-03-31 08:47:43 51°16.05 2°47.282 7.9 33 8.1 101280 90
2008-03-31 08:47:48 51°16.054 2°47.255 8.2 280 8.1 101280 90
2008-03-31 08:47:53 51°16.057 2°47.228 6.7 236 8.1 101280 90
2008-03-31 08:47:58 51°16.06 2°47.201 7.6 280 8.1 101290 90
2008-03-31 08:48:03 51°16.064 2°47.174 7.9 31 8.1 101290 90
2008-03-31 08:48:08 51°16.067 2°47.147 8.4 284 8.1 101290 90
2008-03-31 08:48:13 51°16.07 2°47.12 8.2 36 8.1 101290 90
2008-03-31 08:48:18 51°16.074 2°47.093 8.8 280 8.1 101290 90
2008-03-31 08:48:23 51°16.077 2°47.066 6.6 36 8.1 101290 90
2008-03-31 08:48:27 51°16.079 2°47.044 7 280 8.1 101290 90
2008-03-31 08:48:33 51°16.083 2°47.012 8.6 37 8.1 101290 91
2008-03-31 08:48:38 51°16.086 2°46.985 8.4 280 8.1 101290 91
2008-03-31 08:48:43 51°16.088 2°46.958 9.1 234 8.1 101290 91
2008-03-31 08:48:47 51°16.091 2°46.936 8.8 284 8.1 101280 91
2008-03-31 08:48:53 51°16.094 2°46.904 6.8 234 8.1 101280 91
2008-03-31 08:48:58 51°16.097 2°46.877 8.3 280 8.1 101280 91
2008-03-31 08:49:03 51°16.1 2°46.851 8.5 31 8.1 101280 91
2008-03-31 08:49:07 51°16.103 2°46.829 6.7 281 8.1 101280 91
2008-03-31 08:49:13 51°16.107 2°46.797 8.2 233 8.1 101280 91
2008-03-31 08:49:18 51°16.11 2°46.77 8.3 286 8.1 101280 91
2008-03-31 08:49:23 51°16.113 2°46.743 8.1 31 8.1 101280 91
2008-03-31 08:49:28 51°16.116 2°46.716 6.7 283 8.1 101280 91
2008-03-31 08:49:33 51°16.119 2°46.689 6.6 36 8.1 101280 91
2008-03-31 08:49:38 51°16.122 2°46.662 6.5 284 8.1 101290 91
2008-03-31 08:49:43 51°16.125 2°46.635 6.2 232 8.1 101290 91
2008-03-31 08:49:48 51°16.128 2°46.609 6.3 281 8.1 101290 91
2008-03-31 08:49:53 51°16.131 2°46.582 6.5 31 8.1 101290 91
2008-03-31 08:49:58 51°16.134 2°46.555 6.8 279 8.1 101290 91
2008-03-31 08:50:03 51°16.137 2°46.528 8.3 31 8.1 101290 91
2008-03-31 08:50:07 51°16.139 2°46.506 6.3 283 8.1 101290 91
2008-03-31 08:50:13 51°16.143 2°46.474 8.2 33 8.1 101290 91
2008-03-31 08:50:18 51°16.146 2°46.447 8 279 8.1 101290 91
2008-03-31 08:50:23 51°16.149 2°46.42 8.2 31 8.1 101290 91
2008-03-31 08:50:28 51°16.152 2°46.393 6.8 281 8.1 101290 91
2008-03-31 08:50:33 51°16.155 2°46.366 7.7 33 8.1 101290 91
2008-03-31 08:50:38 51°16.158 2°46.339 8.3 283 8.1 101290 91
2008-03-31 08:50:43 51°16.162 2°46.313 6.4 34 8.1 101290 91
2008-03-31 08:50:47 51°16.164 2°46.291 6.3 284 8.1 101290 91
2008-03-31 08:50:53 51°16.169 2°46.259 7.9 36 8.1 101290 91
2008-03-31 08:50:58 51°16.172 2°46.233 6.5 284 8.1 101290 91
2008-03-31 08:51:03 51°16.176 2°46.206 7.7 34 8.1 101290 91
2008-03-31 08:51:07 51°16.179 2°46.184 6.1 285 8.1 101290 91
2008-03-31 08:51:13 51°16.184 2°46.152 7.9 37 8.1 101290 91
2008-03-31 08:51:18 51°16.187 2°46.125 6.1 281 8.1 101290 91
2008-03-31 08:51:23 51°16.191 2°46.098 8 36 8.1 101290 91
2008-03-31 08:51:28 51°16.194 2°46.071 8 278 8.1 101290 91
2008-03-31 08:51:33 51°16.197 2°46.044 6.5 36 8.1 101290 91
2008-03-31 08:51:38 51°16.201 2°46.017 6.3 22 8.1 101290 91
2008-03-31 08:51:43 51°16.204 2°45.99 6.1 233 8.1 101290 91
2008-03-31 08:51:47 51°16.208 2°45.969 7.3 280 8.1 101290 91
2008-03-31 08:51:53 51°16.213 2°45.937 7.3 39 8.1 101290 91
2008-03-31 08:51:58 51°16.218 2°45.911 5.8 279 8.1 101290 91
2008-03-31 08:52:02 51°16.222 2°45.89 5.6 234 8.1 101290 91
2008-03-31 08:52:08 51°16.229 2°45.858 5.7 278 8.1 101290 91
2008-03-31 08:52:13 51°16.234 2°45.831 7.3 35 8.1 101290 91
2008-03-31 08:52:18 51°16.24 2°45.805 7 283 8.1 101290 91
2008-03-31 08:52:23 51°16.246 2°45.779 5.6 39 8.1 101290 91
2008-03-31 08:52:28 51°16.251 2°45.753 5.6 278 8.1 101290 91
2008-03-31 08:52:33 51°16.256 2°45.726 5.9 234 8.1 101290 91
2008-03-31 08:52:38 51°16.261 2°45.7 5.7 -999 8.1 101290 91
2008-03-31 08:52:43 51°16.266 2°45.673 7.1 233 8.1 101290 91
2008-03-31 08:52:47 51°16.271 2°45.652 7.3 278 8.1 101290 91
2008-03-31 08:52:53 51°16.278 2°45.62 6.9 234 8.1 101290 91
2008-03-31 08:52:58 51°16.284 2°45.594 6.5 279 8.1 101290 91
2008-03-31 08:53:03 51°16.291 2°45.569 7.3 32 8.1 101290 91
2008-03-31 08:53:07 51°16.296 2°45.548 5.4 280 8.1 101300 91
2008-03-31 08:53:13 51°16.304 2°45.517 7 32 8.1 101300 91
2008-03-31 08:53:18 51°16.311 2°45.491 7 279 8.1 101290 91
2008-03-31 08:53:23 51°16.318 2°45.465 6.5 32 8.1 101290 91
2008-03-31 08:53:27 51°16.323 2°45.444 7 281 8.1 101290 91
2008-03-31 08:53:33 51°16.331 2°45.413 5.5 233 8.1 101290 91
2008-03-31 08:53:38 51°16.338 2°45.388 6.6 23 8.1 101290 91
2008-03-31 08:53:43 51°16.345 2°45.362 6.9 32 8.1 101290 91
2008-03-31 08:53:47 51°16.35 2°45.341 6.7 287 8.1 101300 91
2008-03-31 08:53:53 51°16.359 2°45.31 6.5 37 8.1 101300 91
2008-03-31 08:53:58 51°16.367 2°45.285 5.2 24 8.1 101300 91
2008-03-31 08:54:03 51°16.375 2°45.26 5.4 234 8.1 101300 91
2008-03-31 08:54:08 51°16.382 2°45.234 5.3 286 8.1 101300 91
2008-03-31 08:54:13 51°16.39 2°45.209 6.8 236 8.1 101300 91
2008-03-31 08:54:18 51°16.398 2°45.184 6.5 284 8.1 101300 91
2008-03-31 08:54:23 51°16.407 2°45.159 6.8 236 8.1 101300 91
2008-03-31 08:54:28 51°16.415 2°45.134 5.8 284 8.1 101300 91
2008-03-31 08:54:33 51°16.424 2°45.11 5.1 33 8.1 101300 91
2008-03-31 08:54:38 51°16.433 2°45.086 6.3 27 8.1 101300 91
2008-03-31 08:54:43 51°16.442 2°45.061 6.5 237 8.1 101300 91
2008-03-31 08:54:48 51°16.451 2°45.037 6.1 285 8.1 101300 91
2008-03-31 08:54:53 51°16.46 2°45.012 6.5 234 8.1 101300 91
2008-03-31 08:54:58 51°16.469 2°44.988 6.4 286 8.1 101300 91
2008-03-31 08:55:02 51°16.476 2°44.968 5.1 32 8.1 101300 91
2008-03-31 08:55:08 51°16.486 2°44.939 5.3 282 8.1 101300 91
2008-03-31 08:55:13 51°16.494 2°44.914 6.5 235 8.1 101300 91
2008-03-31 08:55:18 51°16.503 2°44.889 6.8 283 8.1 101300 91
2008-03-31 08:55:23 51°16.511 2°44.865 6.7 237 8.1 101300 91
2008-03-31 08:55:27 51°16.518 2°44.845 6.1 280 8.1 101300 91
2008-03-31 08:55:33 51°16.529 2°44.816 6.6 31 8.1 101300 91
2008-03-31 08:55:38 51°16.538 2°44.792 5.4 19 8.1 101300 91
2008-03-31 08:55:43 51°16.547 2°44.768 6.2 239 8.1 101300 91
2008-03-31 08:55:47 51°16.554 2°44.748 4.9 285 8.1 101300 91
2008-03-31 08:55:53 51°16.566 2°44.72 5 237 8.1 101300 91
2008-03-31 08:55:58 51°16.575 2°44.696 6.4 283 8.1 101300 91
2008-03-31 08:56:03 51°16.584 2°44.672 6.5 33 8.1 101300 91
2008-03-31 08:56:07 51°16.591 2°44.652 6.2 278 8.1 101300 91
2008-03-31 08:56:13 51°16.602 2°44.623 6.1 236 8.1 101300 91
2008-03-31 08:56:18 51°16.612 2°44.599 6 284 8.1 101300 91
2008-03-31 08:56:23 51°16.621 2°44.575 4.9 235 8.1 101300 91
2008-03-31 08:56:27 51°16.629 2°44.556 5 287 8.1 101300 91
2008-03-31 08:56:33 51°16.641 2°44.528 5.6 235 8.1 101300 91
2008-03-31 08:56:38 51°16.65 2°44.505 6.3 24 8.1 101300 91
2008-03-31 08:56:43 51°16.66 2°44.481 5.7 34 8.1 101300 91
2008-03-31 08:56:48 51°16.67 2°44.457 4.7 286 8.1 101300 91
2008-03-31 08:56:53 51°16.68 2°44.433 6.6 235 8.1 101300 91
2008-03-31 08:56:58 51°16.689 2°44.41 5.1 285 8.1 101300 91
2008-03-31 08:57:03 51°16.699 2°44.386 6 237 8.1 101300 91
2008-03-31 08:57:08 51°16.709 2°44.362 4.7 280 8.1 101300 91
2008-03-31 08:57:13 51°16.719 2°44.339 4.6 34 8.1 101300 91
2008-03-31 08:57:18 51°16.729 2°44.316 4.6 280 8.1 101300 91
2008-03-31 08:57:23 51°16.739 2°44.292 5.6 234 8.1 101300 91
2008-03-31 08:57:28 51°16.749 2°44.269 4.9 281 8.1 101300 91
2008-03-31 08:57:33 51°16.76 2°44.246 5.7 31 8.1 101300 91
2008-03-31 08:57:38 51°16.77 2°44.223 5.7 26 8.1 101310 91
2008-03-31 08:57:43 51°16.78 2°44.199 5.9 234 8.1 101310 91
2008-03-31 08:57:47 51°16.788 2°44.181 5.7 279 8.1 101300 91
2008-03-31 08:57:53 51°16.8 2°44.153 6.2 31 8.1 101300 91
2008-03-31 08:57:58 51°16.81 2°44.129 4.7 284 8.2 101300 91
2008-03-31 08:58:03 51°16.819 2°44.105 6 31 8.2 101300 91
2008-03-31 08:58:07 51°16.827 2°44.086 5.9 281 8.1 101310 91
2008-03-31 08:58:13 51°16.839 2°44.058 5.8 235 8.1 101310 91
2008-03-31 08:58:18 51°16.849 2°44.034 6 285 8.1 101310 91
2008-03-31 08:58:23 51°16.858 2°44.01 6 31 8.1 101310 91
2008-03-31 08:58:28 51°16.868 2°43.987 5.8 280 8.1 101300 91
2008-03-31 08:58:33 51°16.878 2°43.963 5.7 31 8.1 101300 91
2008-03-31 08:58:38 51°16.887 2°43.939 5 24 8.1 101310 91
2008-03-31 08:58:43 51°16.897 2°43.916 5.9 36 8.1 101310 91
2008-03-31 08:58:48 51°16.906 2°43.892 5.9 287 8.1 101310 91
2008-03-31 08:58:53 51°16.916 2°43.868 4.6 235 8.1 101310 91
2008-03-31 08:58:58 51°16.926 2°43.844 5.7 284 8.1 101310 91
2008-03-31 08:59:03 51°16.935 2°43.821 5.9 234 8.1 101310 91
2008-03-31 08:59:07 51°16.943 2°43.802 5.7 280 8.1 101310 91
2008-03-31 08:59:13 51°16.954 2°43.773 5.8 33 8.1 101310 91
2008-03-31 08:59:18 51°16.964 2°43.749 5.8 279 8.1 101310 91
2008-03-31 08:59:23 51°16.973 2°43.725 6.1 32 8.1 101310 91
2008-03-31 08:59:28 51°16.983 2°43.702 6.1 284 8.2 101310 91
2008-03-31 08:59:33 51°16.993 2°43.678 5.8 233 8.2 101310 91
2008-03-31 08:59:38 51°17.003 2°43.655 5.5 25 8.1 101310 91
2008-03-31 08:59:43 51°17.013 2°43.632 5.5 236 8.1 101310 91
2008-03-31 08:59:47 51°17.021 2°43.613 5.5 280 8.1 101310 91
2008-03-31 08:59:53 51°17.033 2°43.585 4.6 235 8.1 101310 91
2008-03-31 08:59:58 51°17.043 2°43.562 5.4 285 8.2 101310 91
2008-03-31 09:00:03 51°17.053 2°43.539 6 233 8.2 101310 91
2008-03-31 09:00:07 51°17.061 2°43.52 4.8 280 8.2 101310 91
2008-03-31 09:00:13 51°17.072 2°43.491 6.2 36 8.2 101310 91
2008-03-31 09:00:18 51°17.082 2°43.467 4.5 284 8.2 101310 91
2008-03-31 09:00:23 51°17.091 2°43.443 5.6 34 8.2 101310 91
2008-03-31 09:00:28 51°17.101 2°43.42 4.9 282 8.1 101310 91
2008-03-31 09:00:33 51°17.11 2°43.396 5.7 35 8.1 101310 91
2008-03-31 09:00:38 51°17.12 2°43.372 6 27 8.1 101310 91
2008-03-31 09:00:43 51°17.13 2°43.349 5.7 37 8.1 101310 91
2008-03-31 09:00:47 51°17.138 2°43.33 5.6 280 8.1 101310 91
2008-03-31 09:00:53 51°17.149 2°43.302 4.4 37 8.1 101310 91
2008-03-31 09:00:58 51°17.16 2°43.279 4.6 281 8.1 101300 91
2008-03-31 09:01:03 51°17.17 2°43.256 5.8 38 8.1 101300 91
2008-03-31 09:01:08 51°17.18 2°43.233 5.6 281 8.2 101310 91
2008-03-31 09:01:13 51°17.19 2°43.21 4.3 37 8.2 101310 91
2008-03-31 09:01:18 51°17.2 2°43.187 4.4 280 8.2 101310 91
2008-03-31 09:01:23 51°17.21 2°43.164 4.3 36 8.2 101310 91
2008-03-31 09:01:28 51°17.22 2°43.141 4.5 280 8.1 101300 91
2008-03-31 09:01:33 51°17.23 2°43.118 4.4 36 8.1 101300 91
2008-03-31 09:01:38 51°17.24 2°43.094 5.5 24 8.1 101310 91
2008-03-31 09:01:43 51°17.25 2°43.071 5.4 35 8.1 101310 91
2008-03-31 09:01:47 51°17.258 2°43.052 5.3 279 8.2 101310 91
2008-03-31 09:01:53 51°17.27 2°43.025 4.4 32 8.2 101310 91
2008-03-31 09:01:58 51°17.279 2°43.001 5.9 279 8.1 101310 91
2008-03-31 09:02:03 51°17.289 2°42.978 4.6 39 8.1 101310 91
2008-03-31 09:02:07 51°17.296 2°42.958 5.7 284 8.1 101310 91
2008-03-31 09:02:13 51°17.307 2°42.93 5.3 32 8.1 101310 91
2008-03-31 09:02:18 51°17.317 2°42.906 5.2 283 8.2 101310 91
2008-03-31 09:02:23 51°17.326 2°42.883 5.2 40 8.2 101310 91
2008-03-31 09:02:27 51°17.334 2°42.864 4.5 285 8.1 101310 91
2008-03-31 09:02:33 51°17.345 2°42.836 4.3 37 8.1 101310 91
2008-03-31 09:02:38 51°17.354 2°42.812 5.4 27 8.1 101310 91
2008-03-31 09:02:43 51°17.364 2°42.789 4.5 32 8.1 101310 91
2008-03-31 09:02:47 51°17.371 2°42.77 4.6 281 8.1 101310 91
2008-03-31 09:02:53 51°17.383 2°42.741 4.6 37 8.1 101310 91
2008-03-31 09:02:58 51°17.393 2°42.718 5.2 281 8.2 101310 91
2008-03-31 09:03:03 51°17.403 2°42.694 4.3 40 8.2 101310 91
2008-03-31 09:03:08 51°17.413 2°42.671 5.6 283 8.1 101310 91
2008-03-31 09:03:13 51°17.422 2°42.647 4.4 38 8.1 101310 91
2008-03-31 09:03:18 51°17.433 2°42.624 4.4 280 8.1 101310 91
2008-03-31 09:03:23 51°17.443 2°42.601 5.4 31 8.1 101310 91
2008-03-31 09:03:28 51°17.453 2°42.578 4 279 8.1 101310 91
2008-03-31 09:03:33 51°17.464 2°42.554 4.8 35 8.1 101310 91
2008-03-31 09:03:38 51°17.474 2°42.531 4.3 26 8.1 101310 91
2008-03-31 09:03:43 51°17.484 2°42.508 5.1 34 8.1 101310 91
2008-03-31 09:03:48 51°17.494 2°42.484 5.4 280 8.1 101310 91
2008-03-31 09:03:53 51°17.504 2°42.461 4.3 36 8.1 101310 91
2008-03-31 09:03:58 51°17.514 2°42.438 4.4 285 8.1 101310 91
2008-03-31 09:04:02 51°17.522 2°42.419 5.5 317 8.1 101310 91
2008-03-31 09:04:08 51°17.534 2°42.391 5.1 284 8.1 101310 91
2008-03-31 09:04:13 51°17.544 2°42.368 4 33 8.1 101310 91
2008-03-31 09:04:18 51°17.554 2°42.344 4.1 280 8.1 101310 91
2008-03-31 09:04:23 51°17.565 2°42.321 4.6 36 8.1 101310 91
2008-03-31 09:04:27 51°17.573 2°42.303 3.9 278 8.1 101310 91
2008-03-31 09:04:33 51°17.585 2°42.275 4.8 39 8.1 101310 91
2008-03-31 09:04:38 51°17.595 2°42.252 4.2 26 8.1 101310 91
2008-03-31 09:04:43 51°17.606 2°42.229 5.1 33 8.1 101310 91
2008-03-31 09:04:47 51°17.614 2°42.21 4 279 8.2 101310 91
2008-03-31 09:04:53 51°17.626 2°42.183 5.2 31 8.2 101310 91
2008-03-31 09:04:58 51°17.636 2°42.159 5.1 284 8.2 101310 91
2008-03-31 09:05:03 51°17.646 2°42.136 4.1 38 8.2 101310 91
2008-03-31 09:05:07 51°17.654 2°42.117 4.7 280 8.2 101310 91
2008-03-31 09:05:13 51°17.667 2°42.09 4 30 8.2 101310 91
2008-03-31 09:05:18 51°17.677 2°42.066 5.2 286 8.2 101310 91
2008-03-31 09:05:23 51°17.687 2°42.043 4.8 38 8.2 101310 91
2008-03-31 09:05:27 51°17.694 2°42.024 3.8 282 8.2 101310 91
2008-03-31 09:05:33 51°17.706 2°41.996 4.3 38 8.2 101310 91
2008-03-31 09:05:38 51°17.716 2°41.972 4.1 22 8.2 101310 91
2008-03-31 09:05:43 51°17.726 2°41.949 4.4 316 8.2 101310 91
2008-03-31 09:05:48 51°17.735 2°41.925 4 283 8.2 101310 91
2008-03-31 09:05:53 51°17.745 2°41.902 5 316 8.2 101310 91
2008-03-31 09:05:58 51°17.755 2°41.878 4.7 285 8.2 101320 91
2008-03-31 09:06:03 51°17.765 2°41.855 3.7 39 8.2 101320 91
2008-03-31 09:06:08 51°17.775 2°41.832 5.1 286 8.2 101320 91
2008-03-31 09:06:13 51°17.784 2°41.808 4.7 37 8.2 101320 91
2008-03-31 09:06:18 51°17.794 2°41.784 4.7 284 8.2 101310 91
2008-03-31 09:06:23 51°17.804 2°41.761 5.2 317 8.2 101310 91
2008-03-31 09:06:28 51°17.814 2°41.738 5 283 8.2 101310 91
2008-03-31 09:06:33 51°17.824 2°41.714 5.1 316 8.2 101310 91
2008-03-31 09:06:38 51°17.833 2°41.69 4.1 20 8.2 101320 91
2008-03-31 09:06:43 51°17.843 2°41.667 5.1 318 8.2 101320 91
2008-03-31 09:06:47 51°17.851 2°41.648 5.2 279 8.2 101310 91
2008-03-31 09:06:53 51°17.863 2°41.62 4.6 33 8.2 101310 91
2008-03-31 09:06:58 51°17.873 2°41.596 4.2 279 8.2 101310 91
2008-03-31 09:07:03 51°17.884 2°41.573 4.6 316 8.2 101310 91
2008-03-31 09:07:07 51°17.892 2°41.555 5 281 8.2 101310 91
2008-03-31 09:07:13 51°17.904 2°41.527 4.2 319 8.2 101310 91
2008-03-31 09:07:18 51°17.914 2°41.504 5.4 283 8.2 101310 91
2008-03-31 09:07:23 51°17.924 2°41.48 3.9 316 8.2 101310 91
2008-03-31 09:07:28 51°17.934 2°41.457 4 279 8.2 101320 91
2008-03-31 09:07:33 51°17.944 2°41.433 4 318 8.2 101320 91
2008-03-31 09:07:38 51°17.954 2°41.409 4 28 8.2 101320 91
2008-03-31 09:07:43 51°17.963 2°41.386 4.9 316 8.2 101320 91
2008-03-31 09:07:48 51°17.973 2°41.362 4.9 283 8.2 101310 91
2008-03-31 09:07:53 51°17.983 2°41.339 4.5 32 8.2 101310 91
2008-03-31 09:07:58 51°17.993 2°41.316 5.1 282 8.2 101320 91
2008-03-31 09:08:03 51°18.003 2°41.293 4.6 37 8.2 101320 91
2008-03-31 09:08:07 51°18.011 2°41.274 3.9 280 8.2 101310 91
2008-03-31 09:08:13 51°18.023 2°41.246 5.1 32 8.2 101310 91
2008-03-31 09:08:18 51°18.032 2°41.222 4.6 283 8.2 101310 91
2008-03-31 09:08:23 51°18.042 2°41.199 3.6 38 8.2 101310 91
2008-03-31 09:08:28 51°18.052 2°41.175 4.9 280 8.2 101310 91
2008-03-31 09:08:33 51°18.062 2°41.152 4 39 8.2 101310 91
2008-03-31 09:08:38 51°18.072 2°41.129 4.4 26 8.2 101320 91
2008-03-31 09:08:43 51°18.082 2°41.106 4.6 317 8.2 101320 91
2008-03-31 09:08:48 51°18.092 2°41.082 4.6 281 8.2 101310 91
2008-03-31 09:08:53 51°18.102 2°41.059 3.9 317 8.2 101310 91
2008-03-31 09:08:58 51°18.112 2°41.036 3.7 282 8.2 101320 91
2008-03-31 09:09:03 51°18.122 2°41.013 4.8 317 8.2 101320 91
2008-03-31 09:09:07 51°18.13 2°40.994 5 285 8.2 101310 91
2008-03-31 09:09:13 51°18.142 2°40.966 4.6 32 8.2 101310 91
2008-03-31 09:09:18 51°18.152 2°40.943 3.9 280 8.2 101320 91
2008-03-31 09:09:23 51°18.162 2°40.92 4.8 36 8.2 101320 91
2008-03-31 09:09:28 51°18.171 2°40.897 3.6 285 8.2 101310 91
2008-03-31 09:09:33 51°18.181 2°40.873 4.8 317 8.2 101310 91
2008-03-31 09:09:38 51°18.191 2°40.85 5.1 318 8.2 101320 91
2008-03-31 09:09:43 51°18.2 2°40.827 3.8 317 8.2 101320 91
2008-03-31 09:09:47 51°18.208 2°40.808 3.5 286 8.2 101320 91
2008-03-31 09:09:53 51°18.22 2°40.78 4.4 36 8.2 101320 91
2008-03-31 09:09:58 51°18.23 2°40.757 4.6 283 8.2 101320 91
2008-03-31 09:10:03 51°18.24 2°40.734 4.1 316 8.2 101320 91
2008-03-31 09:10:08 51°18.25 2°40.711 3.6 280 8.2 101310 91
2008-03-31 09:10:13 51°18.26 2°40.688 3.6 36 8.2 101310 91
2008-03-31 09:10:18 51°18.27 2°40.666 3.7 281 8.2 101310 91
2008-03-31 09:10:23 51°18.28 2°40.643 4.1 318 8.2 101310 91
2008-03-31 09:10:28 51°18.29 2°40.62 4.4 284 8.2 101320 91
2008-03-31 09:10:33 51°18.301 2°40.598 4.3 319 8.2 101320 91
2008-03-31 09:10:38 51°18.311 2°40.575 3.5 319 8.2 101320 91
2008-03-31 09:10:43 51°18.321 2°40.552 3.4 318 8.2 101320 91
2008-03-31 09:10:48 51°18.331 2°40.529 3.5 284 8.2 101320 91
2008-03-31 09:10:53 51°18.341 2°40.506 3.7 320 8.2 101320 91
2008-03-31 09:10:58 51°18.35 2°40.483 3.6 285 8.2 101310 91
2008-03-31 09:11:03 51°18.36 2°40.459 3.5 38 8.2 101310 91
2008-03-31 09:11:07 51°18.367 2°40.441 4.2 284 8.2 101320 91
2008-03-31 09:11:13 51°18.379 2°40.413 4.2 319 8.2 101320 91
2008-03-31 09:11:18 51°18.388 2°40.39 4.4 280 8.2 101320 91
2008-03-31 09:11:23 51°18.398 2°40.367 4.8 319 8.2 101320 91
2008-03-31 09:11:27 51°18.406 2°40.348 3.7 279 8.2 101320 91
2008-03-31 09:11:33 51°18.418 2°40.321 4.1 318 8.2 101320 91
2008-03-31 09:11:38 51°18.428 2°40.299 3.9 318 8.2 101320 91
2008-03-31 09:11:43 51°18.438 2°40.276 4.5 319 8.2 101320 91
2008-03-31 09:11:47 51°18.447 2°40.258 4.2 284 8.2 101320 91
2008-03-31 09:11:53 51°18.459 2°40.231 4.2 319 8.2 101320 91
2008-03-31 09:11:58 51°18.469 2°40.208 4.5 285 8.2 101320 91
2008-03-31 09:12:03 51°18.479 2°40.185 3.6 320 8.2 101320 91
2008-03-31 09:12:08 51°18.489 2°40.162 4.1 279 8.2 101320 91
2008-03-31 09:12:13 51°18.499 2°40.139 4.5 319 8.2 101320 91
2008-03-31 09:12:18 51°18.509 2°40.116 4.3 282 8.2 101320 91
2008-03-31 09:12:23 51°18.518 2°40.092 3.6 34 8.2 101320 91
2008-03-31 09:12:28 51°18.528 2°40.069 4.4 280 8.2 101320 91
2008-03-31 09:12:33 51°18.538 2°40.046 3.5 319 8.2 101320 91
2008-03-31 09:12:38 51°18.547 2°40.023 4.4 319 8.2 101320 91
2008-03-31 09:12:43 51°18.557 2°40 3.3 319 8.2 101320 91
2008-03-31 09:12:48 51°18.567 2°39.977 4 278 8.2 101320 91
2008-03-31 09:12:53 51°18.577 2°39.954 3.7 318 8.2 101320 91
2008-03-31 09:12:58 51°18.587 2°39.931 3.8 279 8.2 101320 91
2008-03-31 09:13:02 51°18.595 2°39.913 3.6 316 8.2 101320 91
2008-03-31 09:13:07 51°18.605 2°39.89 4.2 278 8.2 101320 91
2008-03-31 09:13:13 51°18.617 2°39.862 4.1 317 8.2 101320 91
2008-03-31 09:13:18 51°18.627 2°39.84 4 284 8.2 101320 91
2008-03-31 09:13:23 51°18.637 2°39.817 3.2 318 8.2 101320 91
2008-03-31 09:13:27 51°18.645 2°39.799 3.3 282 8.2 101320 91
2008-03-31 09:13:33 51°18.657 2°39.771 4 319 8.2 101320 91
2008-03-31 09:13:38 51°18.667 2°39.749 3.9 322 8.2 101320 91
2008-03-31 09:13:43 51°18.677 2°39.725 3.5 317 8.2 101320 91
2008-03-31 09:13:47 51°18.684 2°39.707 4.6 284 8.2 101320 91
2008-03-31 09:13:53 51°18.696 2°39.679 3.8 318 8.2 101320 91
2008-03-31 09:13:58 51°18.706 2°39.656 4.1 285 8.2 101320 91
2008-03-31 09:14:03 51°18.715 2°39.633 4.2 316 8.2 101320 91
2008-03-31 09:14:07 51°18.723 2°39.614 3.9 281 8.2 101320 91
2008-03-31 09:14:13 51°18.735 2°39.587 3.8 30 8.2 101320 91
2008-03-31 09:14:18 51°18.745 2°39.563 3.7 284 8.2 101320 91
2008-03-31 09:14:23 51°18.755 2°39.541 4 318 8.2 101320 91
2008-03-31 09:14:27 51°18.763 2°39.522 4.3 278 8.2 101320 91
2008-03-31 09:14:33 51°18.775 2°39.495 4.1 316 8.2 101320 91
2008-03-31 09:14:38 51°18.786 2°39.472 3.9 26 8.2 101320 91
2008-03-31 09:14:43 51°18.795 2°39.449 3.9 319 8.2 101320 91
2008-03-31 09:14:48 51°18.805 2°39.425 3.6 283 8.2 101320 91
2008-03-31 09:14:53 51°18.815 2°39.402 4 316 8.2 101320 91
2008-03-31 09:14:58 51°18.825 2°39.379 3.7 280 8.2 101320 91
2008-03-31 09:15:03 51°18.834 2°39.356 3.7 35 8.2 101320 91
2008-03-31 09:15:08 51°18.844 2°39.332 3.8 282 8.3 101320 91
2008-03-31 09:15:13 51°18.854 2°39.309 3.6 315 8.3 101320 91
2008-03-31 09:15:18 51°18.863 2°39.285 4.3 285 8.3 101320 91
2008-03-31 09:15:23 51°18.873 2°39.262 3.2 315 8.3 101320 91
2008-03-31 09:15:28 51°18.882 2°39.239 4.2 278 8.3 101320 91
2008-03-31 09:15:33 51°18.892 2°39.215 4 31 8.3 101320 91
2008-03-31 09:15:38 51°18.902 2°39.192 3.8 26 8.3 101320 91
2008-03-31 09:15:43 51°18.912 2°39.169 3.1 317 8.3 101320 91
2008-03-31 09:15:47 51°18.92 2°39.15 4 278 8.3 101320 91
2008-03-31 09:15:53 51°18.932 2°39.123 3.3 318 8.3 101320 91
2008-03-31 09:15:58 51°18.942 2°39.1 3.9 285 8.3 101320 91
2008-03-31 09:16:03 51°18.952 2°39.077 4 34 8.3 101320 91
2008-03-31 09:16:07 51°18.96 2°39.058 3.5 281 8.3 101320 91
2008-03-31 09:16:13 51°18.972 2°39.03 3.3 37 8.3 101320 91
2008-03-31 09:16:18 51°18.982 2°39.008 4.1 285 8.3 101320 91
2008-03-31 09:16:23 51°18.992 2°38.984 4 316 8.3 101320 91
2008-03-31 09:16:28 51°19.002 2°38.961 3.8 280 8.3 101320 91
2008-03-31 09:16:33 51°19.012 2°38.938 3 31 8.3 101320 91
2008-03-31 09:16:38 51°19.022 2°38.915 3.1 24 8.3 101320 91
2008-03-31 09:16:43 51°19.031 2°38.892 4 35 8.3 101320 91
2008-03-31 09:16:48 51°19.041 2°38.868 3.9 280 8.3 101320 91
2008-03-31 09:16:53 51°19.05 2°38.845 3.9 315 8.3 101320 91
2008-03-31 09:16:58 51°19.06 2°38.822 2.9 278 8.3 101320 91
2008-03-31 09:17:03 51°19.069 2°38.798 3.3 37 8.3 101320 91
2008-03-31 09:17:07 51°19.077 2°38.78 3.5 280 8.3 101320 91
2008-03-31 09:17:13 51°19.089 2°38.752 3.6 38 8.3 101320 91
2008-03-31 09:17:18 51°19.098 2°38.728 3.5 279 8.3 101320 91
2008-03-31 09:17:23 51°19.108 2°38.705 3.2 319 8.3 101320 91
2008-03-31 09:17:28 51°19.117 2°38.682 3.7 285 8.3 101320 91
2008-03-31 09:17:33 51°19.127 2°38.658 3.2 317 8.3 101320 91
2008-03-31 09:17:38 51°19.137 2°38.636 3.6 26 8.3 101320 91
2008-03-31 09:17:43 51°19.147 2°38.613 3.5 319 8.3 101320 91
2008-03-31 09:17:47 51°19.155 2°38.594 3.6 279 8.3 101320 91
2008-03-31 09:17:53 51°19.167 2°38.567 2.9 33 8.3 101320 91
2008-03-31 09:17:58 51°19.177 2°38.544 2.9 280 8.3 101320 91
2008-03-31 09:18:03 51°19.187 2°38.521 3.2 319 8.3 101320 91
2008-03-31 09:18:07 51°19.195 2°38.502 3.5 286 8.3 101330 91
2008-03-31 09:18:13 51°19.206 2°38.474 3.7 316 8.3 101330 91
2008-03-31 09:18:18 51°19.216 2°38.451 4 279 8.3 101320 91
2008-03-31 09:18:23 51°19.226 2°38.428 3.5 34 8.3 101320 91
2008-03-31 09:18:28 51°19.236 2°38.404 3.1 278 8.3 101320 91
2008-03-31 09:18:33 51°19.245 2°38.381 3 316 8.3 101320 91
2008-03-31 09:18:38 51°19.255 2°38.358 3.6 319 8.3 101320 91
2008-03-31 09:18:43 51°19.265 2°38.335 3 319 8.3 101320 91
2008-03-31 09:18:47 51°19.273 2°38.317 2.9 284 8.3 101330 91
2008-03-31 09:18:53 51°19.285 2°38.289 3.5 325 8.3 101330 91
2008-03-31 09:18:58 51°19.296 2°38.267 2.9 285 8.3 101330 91
2008-03-31 09:19:03 51°19.306 2°38.244 3.1 318 8.3 101330 91
2008-03-31 09:19:08 51°19.318 2°38.224 2.7 285 8.3 101320 91
2008-03-31 09:19:13 51°19.33 2°38.203 2.6 322 8.3 101320 91
2008-03-31 09:19:18 51°19.342 2°38.182 2.7 280 8.3 101330 91
2008-03-31 09:19:23 51°19.354 2°38.162 3.1 323 8.3 101330 91
2008-03-31 09:19:28 51°19.367 2°38.142 2.6 278 8.3 101320 91
2008-03-31 09:19:33 51°19.38 2°38.123 3.2 326 8.3 101320 91
2008-03-31 09:19:38 51°19.392 2°38.103 3.2 326 8.3 101330 91
2008-03-31 09:19:43 51°19.405 2°38.083 3.2 324 8.3 101330 91
2008-03-31 09:19:48 51°19.418 2°38.064 2.5 279 8.3 101330 91
2008-03-31 09:19:53 51°19.43 2°38.044 2.8 323 8.3 101330 91
2008-03-31 09:19:58 51°19.443 2°38.024 3 281 8.3 101330 91
2008-03-31 09:20:03 51°19.456 2°38.004 2.2 322 8.3 101330 91
2008-03-31 09:20:07 51°19.466 2°37.989 2.6 279 8.3 101320 91
2008-03-31 09:20:13 51°19.481 2°37.965 3 325 8.3 101320 91
2008-03-31 09:20:18 51°19.494 2°37.945 2.5 285 8.3 101330 91
2008-03-31 09:20:23 51°19.508 2°37.928 2.4 330 8.3 101330 91
2008-03-31 09:20:27 51°19.52 2°37.915 2.3 281 8.3 101330 90
2008-03-31 09:20:33 51°19.539 2°37.899 2.7 339 8.3 101330 90
2008-03-31 09:20:38 51°19.555 2°37.886 2.6 339 8.3 101330 90
2008-03-31 09:20:43 51°19.571 2°37.873 2.8 339 8.3 101330 90
2008-03-31 09:20:47 51°19.583 2°37.863 1.9 280 8.3 101330 90
2008-03-31 09:20:53 51°19.602 2°37.848 2.1 336 8.3 101330 90
2008-03-31 09:20:58 51°19.618 2°37.835 2.2 279 8.3 101330 90
2008-03-31 09:21:03 51°19.634 2°37.821 2.3 339 8.3 101330 90
2008-03-31 09:21:08 51°19.649 2°37.807 2.3 278 8.3 101330 90
2008-03-31 09:21:13 51°19.665 2°37.793 2.4 335 8.3 101330 90
2008-03-31 09:21:18 51°19.68 2°37.779 2 280 8.3 101330 90
2008-03-31 09:21:23 51°19.696 2°37.765 2.2 335 8.3 101330 90
2008-03-31 09:21:28 51°19.712 2°37.752 2.2 285 8.3 101330 90
2008-03-31 09:21:33 51°19.728 2°37.74 2.3 338 8.3 101330 90
2008-03-31 09:21:38 51°19.744 2°37.728 2.4 338 8.2 101330 90
2008-03-31 09:21:43 51°19.761 2°37.717 2 341 8.2 101330 90
2008-03-31 09:21:48 51°19.778 2°37.706 2 283 8.3 101330 90
2008-03-31 09:21:53 51°19.794 2°37.696 2.3 342 8.3 101330 90
2008-03-31 09:21:58 51°19.811 2°37.686 2.2 279 8.2 101330 90
2008-03-31 09:22:02 51°19.824 2°37.678 2.1 342 8.2 101330 90
2008-03-31 09:22:08 51°19.845 2°37.665 2.5 281 8.2 101330 90
2008-03-31 09:22:13 51°19.861 2°37.655 2.1 343 8.2 101330 90
2008-03-31 09:22:18 51°19.878 2°37.644 2.2 279 8.2 101330 90
2008-03-31 09:22:23 51°19.894 2°37.631 1.8 333 8.2 101330 90
2008-03-31 09:22:28 51°19.909 2°37.617 1.7 283 8.2 101330 90
2008-03-31 09:22:33 51°19.924 2°37.601 2 324 8.2 101330 90
2008-03-31 09:22:38 51°19.938 2°37.584 2.1 319 8.2 101330 90
2008-03-31 09:22:43 51°19.952 2°37.568 2.2 324 8.2 101330 90
2008-03-31 09:22:47 51°19.963 2°37.553 2.5 284 8.1 101330 90
2008-03-31 09:22:53 51°19.98 2°37.532 2.1 320 8.1 101330 90
2008-03-31 09:22:58 51°19.994 2°37.515 1.9 284 8.2 101330 90
2008-03-31 09:23:03 51°20.008 2°37.498 2.2 316 8.2 101330 90
2008-03-31 09:23:07 51°20.019 2°37.484 1.7 281 8.2 101330 90
2008-03-31 09:23:13 51°20.037 2°37.464 1.7 323 8.2 101330 90
2008-03-31 09:23:18 51°20.051 2°37.449 1.8 277 8.2 101330 90
2008-03-31 09:23:23 51°20.065 2°37.436 1.3 321 8.2 101330 90
2008-03-31 09:23:27 51°20.075 2°37.425 1 278 8.2 101330 91
2008-03-31 09:23:33 51°20.09 2°37.41 0.8 37 8.2 101330 91
2008-03-31 09:23:38 51°20.101 2°37.397 1 20 8.2 101330 91
2008-03-31 09:23:43 51°20.111 2°37.383 2 248 8.2 101330 91
2008-03-31 09:23:48 51°20.118 2°37.367 2.9 278 8.2 101330 91
2008-03-31 09:23:53 51°20.125 2°37.351 2.6 247 8.2 101330 91
2008-03-31 09:23:58 51°20.13 2°37.336 4.2 280 8.2 101330 91
2008-03-31 09:24:03 51°20.134 2°37.322 4.8 254 8.2 101330 91
2008-03-31 09:24:08 51°20.137 2°37.308 5 285 8.2 101330 91
2008-03-31 09:24:13 51°20.139 2°37.295 5.3 252 8.2 101330 91
2008-03-31 09:24:18 51°20.14 2°37.284 5.5 279 8.3 101330 91
2008-03-31 09:24:23 51°20.141 2°37.272 4.4 250 8.3 101330 91
2008-03-31 09:24:28 51°20.141 2°37.262 5.6 280 8.3 101330 92
2008-03-31 09:24:33 51°20.141 2°37.253 4.4 251 8.3 101330 92
2008-03-31 09:24:38 51°20.14 2°37.243 4.5 19 8.3 101330 92
2008-03-31 09:24:43 51°20.139 2°37.234 4.3 250 8.3 101330 92
2008-03-31 09:24:47 51°20.138 2°37.227 5.3 285 8.3 101330 91
2008-03-31 09:24:53 51°20.137 2°37.218 5 245 8.3 101330 91
2008-03-31 09:24:58 51°20.135 2°37.21 5.5 282 8.3 101320 91
2008-03-31 09:25:03 51°20.134 2°37.202 5.9 251 8.3 101320 91
2008-03-31 09:25:07 51°20.133 2°37.196 5.5 280 8.4 101330 91
2008-03-31 09:25:13 51°20.131 2°37.187 4.3 249 8.4 101330 91
2008-03-31 09:25:18 51°20.13 2°37.179 5.7 277 8.4 101330 91
2008-03-31 09:25:23 51°20.128 2°37.171 4.5 246 8.4 101330 91
2008-03-31 09:25:28 51°20.126 2°37.162 5.6 280 8.4 101320 91
2008-03-31 09:25:33 51°20.124 2°37.153 5.9 245 8.4 101320 91
2008-03-31 09:25:38 51°20.122 2°37.144 4.6 20 8.4 101320 91
2008-03-31 09:25:43 51°20.119 2°37.135 6 244 8.4 101320 91
2008-03-31 09:25:48 51°20.117 2°37.125 4.6 280 8.4 101330 91
2008-03-31 09:25:53 51°20.114 2°37.115 4.8 242 8.4 101330 91
2008-03-31 09:25:58 51°20.112 2°37.105 4.9 280 8.4 101330 91
2008-03-31 09:26:03 51°20.109 2°37.095 5 243 8.4 101330 91
2008-03-31 09:26:07 51°20.106 2°37.087 6.1 284 8.4 101330 91
2008-03-31 09:26:13 51°20.102 2°37.074 6 240 8.4 101330 91
2008-03-31 09:26:18 51°20.099 2°37.064 5.1 280 8.4 101330 91
2008-03-31 09:26:23 51°20.096 2°37.053 4.9 242 8.4 101330 91
2008-03-31 09:26:28 51°20.093 2°37.042 6.4 280 8.4 101330 91
2008-03-31 09:26:33 51°20.091 2°37.03 5.9 244 8.4 101330 91
2008-03-31 09:26:38 51°20.088 2°37.019 5.6 246 8.4 101330 91
2008-03-31 09:26:43 51°20.087 2°37.009 5.4 246 8.4 101330 91
2008-03-31 09:26:48 51°20.086 2°36.999 5.1 278 8.4 101330 91
2008-03-31 09:26:53 51°20.085 2°36.989 5.2 251 8.4 101330 91
2008-03-31 09:26:58 51°20.084 2°36.98 4.4 280 8.4 101320 91
2008-03-31 09:27:03 51°20.083 2°36.971 5.4 250 8.4 101320 91
2008-03-31 09:27:07 51°20.083 2°36.964 5.4 280 8.4 101330 91
2008-03-31 09:27:13 51°20.082 2°36.954 5.4 252 8.4 101330 91
2008-03-31 09:27:18 51°20.081 2°36.946 5.8 282 8.4 101330 91
2008-03-31 09:27:23 51°20.081 2°36.939 5.3 253 8.4 101330 91
2008-03-31 09:27:28 51°20.08 2°36.932 4 278 8.4 101330 91
2008-03-31 09:27:33 51°20.079 2°36.925 3.8 253 8.4 101330 91
2008-03-31 09:27:38 51°20.079 2°36.918 4.8 250 8.4 101330 91
2008-03-31 09:27:43 51°20.078 2°36.912 5 251 8.4 101330 91
2008-03-31 09:27:47 51°20.078 2°36.908 4 286 8.4 101330 91
2008-03-31 09:27:53 51°20.077 2°36.901 4.2 253 8.4 101330 91
2008-03-31 09:27:58 51°20.077 2°36.896 4.4 284 8.5 101330 91
2008-03-31 09:28:03 51°20.077 2°36.891 4.4 258 8.5 101330 91
2008-03-31 09:28:08 51°20.077 2°36.887 4.7 280 8.4 101330 91
2008-03-31 09:28:13 51°20.077 2°36.882 4 260 8.4 101330 91
2008-03-31 09:28:18 51°20.077 2°36.878 5 285 8.4 101330 91
2008-03-31 09:28:23 51°20.077 2°36.875 4.2 262 8.4 101330 91